Volver al catálogo

STARLINK-37648

ActivoComunicacionesVLEO
NORAD 100276·PAYLOAD·🇺🇸 United States

Lanzado Aug 11, 2026 desde Cape Canaveral Space Force Station

Loading…

Próximos Pases (próximas 24 horas)

TLE

ActualizadoSource: Space-Track

Época: Sep 14, 2026, 13:59 UTC

1 A0276U 26183E   26257.58287654  .00163859  00000-0  10512-2 0  9995
2 A0276  53.1545 286.6003 0001255 120.8879 239.2265 15.75268323  5379

Sigue STARLINK-37648 en tiempo real con AllMySat

Download on the App Store